Weather History for KLWT - January, 2014

Change the Weather History Date:

Friday, January 31, 2014

  Actual Average Record
Temperature  
Mean Temperature 5 °F 24 °F  
Max Temperature 18 °F 35 °F 61 °F (1992)
Min Temperature -8 °F 14 °F -40 °F (1917)
Degree Days  
Heating Degree Days 60 41  
Month to date heating degree days 1221 1283  
Since 1 July heating degree days 4614 4705  
Cooling Degree Days 0 0  
Month to date cooling degree days 0 0  
Year to date cooling degree days 0 0  
Moisture  
Dew Point 2 °F    
Average Humidity 77    
Maximum Humidity 95    
Minimum Humidity 59    
Precipitation  
Precipitation T in 0.02 in 0.41 in (2013)
Month to date precipitation 0.99 0.57  
Year to date precipitation 0.99 0.57  
Snow  
Snow 0.00 in - - ()
Snow Depth 8.00 in    
Sea Level Pressure  
Sea Level Pressure 29.97 in    
Wind  
Wind Speed 9 mph (West)    
Max Wind Speed 20 mph    
Max Gust Speed 25 mph    
Visibility 7 miles    
Events Snow    
T = Trace of Precipitation, MM = Missing Value Source: NWS Daily Summary

Daily Weather History Graph

Daily Weather History Graph

Search for Another Location

Airport or City:

Trip Planner

Search our weather history database for the weather conditions in past years. The results will help you decide how hot, cold, wet, or windy it might be!

Date:

Astronomy

Jan. 31, 2014 Rise Set
Actual Time 7:44 AM MST 5:19 PM MST
Civil Twilight 7:11 AM MST 5:51 PM MST
Nautical Twilight 6:34 AM MST 6:28 PM MST
Astronomical Twilight 5:59 AM MST 7:04 PM MST
Moon 7:49 AM MST (1/31) 6:56 PM MST (1/31)
Length of Visible Light 10h 40m
Length of Day
9h 35m
New Moon, 1% of the Moon is Illuminated
Jan 31
New Moon
Feb 6
First Quarter
Feb 14
Full
Feb 22
Last Quarter
Mar 1
New

Hourly Weather History & Observations

Time (MST) Temp. Windchill Dew Point Humidity Pressure Visibility Wind Dir Wind Speed Gust Speed Precip Events Conditions
12:54 AM -7.1 °F -21.4 °F -9.9 °F 87% 30.00 in 10.0 mi ESE 6.9 mph - N/A   Clear
1:54 AM -5.1 °F -21.5 °F -9.9 °F 80% 29.97 in 10.0 mi ESE 9.2 mph - N/A   Clear
2:54 AM -5.1 °F -21.5 °F -9.9 °F 80% 29.95 in 10.0 mi ESE 9.2 mph - N/A   Clear
3:54 AM -5.1 °F -17.6 °F -8.0 °F 87% 29.93 in 10.0 mi ESE 5.8 mph - N/A   Clear
4:54 AM -6.0 °F -18.6 °F -8.0 °F 91% 29.94 in 10.0 mi SE 5.8 mph - N/A   Clear
5:54 AM -2.9 °F -15.0 °F -7.1 °F 82% 29.92 in 10.0 mi SE 5.8 mph - N/A   Scattered Clouds
6:54 AM -0.9 °F -12.7 °F -4.0 °F 87% 29.91 in 10.0 mi SE 5.8 mph - N/A   Clear
7:54 AM -4.0 °F -14.6 °F -6.0 °F 91% 29.92 in 10.0 mi SSE 4.6 mph - N/A   Clear
8:54 AM 10.0 °F -2.9 °F 7.0 °F 87% 29.90 in 10.0 mi WSW 9.2 mph - N/A   Overcast
9:54 AM 17.1 °F 5.0 °F 12.0 °F 81% 29.90 in 10.0 mi West 10.4 mph - 0.00 in   Overcast
10:54 AM 17.1 °F 4.3 °F 9.0 °F 71% 29.94 in 10.0 mi West 11.5 mph - N/A   Mostly Cloudy
11:54 AM 17.1 °F 2.5 °F 7.0 °F 65% 29.96 in 10.0 mi WNW 15.0 mph - N/A   Overcast
12:54 PM 16.0 °F 1.1 °F 3.9 °F 59% 29.97 in 10.0 mi NW 15.0 mph 24.2 mph N/A   Overcast
1:54 PM 14.0 °F 2.9 °F 3.0 °F 62% 29.97 in 10.0 mi NW 8.1 mph - N/A   Scattered Clouds
2:54 PM 12.9 °F 0.7 °F 3.9 °F 67% 30.00 in 10.0 mi NW 9.2 mph - N/A   Overcast
3:54 PM 10.9 °F 0.2 °F 3.9 °F 73% 30.04 in 10.0 mi NW 6.9 mph - N/A   Mostly Cloudy
4:54 PM 7.0 °F -6.6 °F 1.9 °F 80% 30.07 in 10.0 mi West 9.2 mph - N/A   Clear
5:54 PM 9.0 °F -4.2 °F 3.9 °F 80% 30.08 in 10.0 mi West 9.2 mph - N/A   Overcast
6:54 PM 9.0 °F -4.2 °F 6.1 °F 88% 30.09 in 2.5 mi West 9.2 mph - 0.00 in Snow Light Snow
7:04 PM 9.0 °F -4.2 °F 6.1 °F 88% 29.85 in 5.0 mi WSW 9.2 mph - 0.00 in Snow Light Snow
7:40 PM 8.1 °F -6.2 °F 5.0 °F 87% 29.87 in 2.5 mi SW 10.4 mph - 0.00 in Snow Light Snow
7:54 PM 9.0 °F -3.2 °F 6.1 °F 88% 30.11 in 1.8 mi WSW 8.1 mph - 0.00 in Snow Light Snow
7:58 PM 9.0 °F -3.2 °F 6.1 °F 88% 29.87 in 2.0 mi West 8.1 mph - 0.00 in Snow Light Snow
8:12 PM 9.0 °F -3.2 °F 6.1 °F 88% 29.88 in 2.0 mi West 8.1 mph - 0.00 in Snow Light Snow
8:21 PM 9.0 °F -4.2 °F 6.1 °F 88% 29.88 in 1.5 mi West 9.2 mph - 0.00 in Snow Light Snow
8:39 PM 10.0 °F -2.9 °F 7.0 °F 87% 29.89 in 3.0 mi WNW 9.2 mph - 0.00 in Snow Light Snow
8:46 PM 10.0 °F -2.9 °F 7.0 °F 87% 29.89 in 4.0 mi WNW 9.2 mph - 0.00 in Snow Light Snow
8:54 PM 10.0 °F -1.9 °F 7.0 °F 87% 30.10 in 2.0 mi WNW 8.1 mph - 0.00 in Snow Light Snow
9:35 PM 9.0 °F -5.9 °F 7.0 °F 92% 29.91 in 3.0 mi WNW 11.5 mph - 0.00 in Snow Light Snow
9:47 PM 8.1 °F -7.0 °F 6.1 °F 92% 29.92 in 6.0 mi West 11.5 mph - 0.00 in Snow Light Snow
9:54 PM 6.1 °F -8.7 °F 5.0 °F 95% 30.11 in 8.0 mi West 10.4 mph - 0.00 in   Overcast
10:54 PM 3.9 °F -11.3 °F -0.0 °F 84% 30.12 in 6.0 mi West 10.4 mph - 0.00 in Snow Light Snow
11:54 PM 3.9 °F -8.2 °F 1.0 °F 88% 30.14 in 4.0 mi West 6.9 mph - 0.00 in Snow Light Snow